Dewpoint
18 19 19 19 20 21 20 20 20 21 21 23 24 24 26 26 27 28 30 33 35 35 35 34 34 34 33 31 29 27 26 25 24 24 24 24 24 24 24 23 22 20
19 20 21 21 21 21 20 20 21 21 21 21 23 23 24 26 26 28 28 29 31 32 33 33 33 33 34 34 34 33 31 27 25 27 24 24 23 24 23 23 22 21
19 20 21 21 21 21 21 21 21 21 21 22 23 23 26 26 27 27 28 28 28 29 30 31 31 31 32 32 32 33 32 32 30 28 26 24 23 22 22 23 22 22
19 20 21 22 22 21 21 21 21 21 22 23 22 24 26 28 27 27 27 29 28 29 30 30 30 30 30 30 30 29 29 29 30 29 28 26 25 24 22 22 22 20
19 22 22 22 23 22 21 21 21 22 23 23 24 24 24 25 26 25 25 27 27 28 29 30 30 29 29 29 29 28 27 27 26 25 24 23 23 22 22 21 21 21
20 24 23 23 22 21 21 21 21 22 23 23 23 24 24 25 25 26 26 26 26 26 27 29 28 28 29 28 28 27 27 26 26 25 24 23 22 20 21 20 20 20
22 22 22 22 21 22 21 21 22 23 22 23 23 24 24 25 25 25 25 26 26 26 26 27 27 27 27 27 27 26 26 26 26 25 24 23 23 22 21 20 20 20
21 22 23 22 23 26 24 22 22 22 23 23 23 23 24 24 25 25 25 25 25 26 26 26 27 28 27 26 25 25 25 26 25 25 24 24 23 22 22 23 23 23
21 22 23 23 21 21 23 24 22 21 23 23 23 23 24 24 24 25 25 25 25 25 26 26 27 27 27 26 26 25 24 24 25 24 24 24 25 24 25 24 23 23
22 25 24 24 22 18 18 18 19 20 21 23 24 25 25 25 25 25 25 25 25 25 26 26 26 27 28 27 26 25 25 25 24 24 24 25 27 26 26 25 24 23
22 24 25 24 21 19 17 16 18 17 18 21 24 25 26 25 24 24 24 25 26 26 26 26 27 28 28 28 28 26 25 25 26 27 25 26 26 27 26 26 25 24
19 18 16 15 14 16 16 16 16 16 16 17 20 20 23 25 24 24 24 24 25 26 27 28 28 28 29 29 29 28 27 27 28 27 27 26 26 26 26 26 26 25
15 14 14 14 13 13 14 15 15 14 14 13 14 20 23 24 24 23 24 24 24 25 25 26 27 28 29 29 29 29 30 29 28 28 27 26 26 26 26 26 26 26
13 13 14 14 14 16 14 13 14 13 13 14 16 20 23 24 24 24 24 25 25 25 25 26 27 29 29 30 31 31 30 30 29 28 27 27 27 27 26 26 26 26
12 12 13 13 13 13 13 13 14 14 15 15 18 22 24 24 25 25 25 24 24 25 26 27 28 29 30 30 31 31 31 30 29 28 28 27 27 27 26 26 26 26
11 12 13 14 14 14 14 15 16 16 15 15 19 21 25 24 25 25 25 26 25 27 28 28 28 30 30 31 31 31 31 30 30 29 28 28 27 27 26 26 26 25
8 11 13 13 15 15 17 18 19 20 19 18 19 24 26 28 28 28 28 29 28 28 27 27 29 30 31 31 31 32 31 31 30 29 29 28 28 27 26 25 25 26
7 10 11 12 13 14 14 16 17 20 21 21 22 23 27 29 29 29 29 29 29 28 28 28 29 29 30 30 30 31 31 31 31 30 30 29 28 26 25 25 25 25
9 10 12 13 13 15 15 17 20 21 22 23 25 26 28 28 28 29 29 29 28 28 28 29 29 29 29 29 30 31 31 31 31 31 30 29 27 27 26 25 24 24
9 10 11 12 13 14 15 17 19 20 22 23 25 27 28 29 29 29 29 29 28 28 28 28 29 29 29 30 30 31 31 31 31 31 31 30 28 27 26 25 24 23
8 9 11 12 12 13 14 16 18 20 22 25 25 26 28 28 27 26 26 27 27 27 28 28 28 29 29 30 31 31 32 32 31 31 31 30 28 27 26 25 24 23
7 9 10 13 13 13 15 16 18 21 23 26 27 27 28 27 25 26 26 27 28 28 28 28 28 29 30 30 31 32 32 31 31 31 30 29 28 26 26 25 24 23
8 10 10 12 12 13 14 15 17 20 22 25 27 26 25 24 26 26 27 27 28 28 28 28 28 30 30 31 31 31 32 31 30 29 27 26 25 25 24 24 24 23
8 9 10 11 13 13 13 14 17 20 22 25 26 26 26 27 26 26 27 28 28 28 28 28 29 30 31 31 31 32 31 30 29 26 24 23 23 23 23 22 23 23
7 8 10 11 11 12 14 15 16 20 23 25 27 27 27 27 28 27 28 28 29 29 29 30 30 30 31 31 32 32 31 30 28 24 23 22 22 22 22 21 22 23
7 8 9 11 11 12 14 15 19 21 24 26 27 27 27 27 28 28 29 29 29 30 30 31 31 31 31 30 30 30 30 29 26 23 22 21 21 20 20 20 21 21